Hourly Data Report for July 26, 2003

TORONTO CITY
ONTARIO

43°40'00.000" N
79°24'00.000" W
112.50 m
6158355
71508
XTO

Download Data

Hourly Data (July 2003)
Hourly Data Report for July 26, 2003
TIME
LST
Temp Definition
°C
Dew Point Definition
°C
Rel Hum Definition
%
Precip. Amount Definition
mm

Wind Dir Definition
10's deg

Wind Spd Definition
km/h
Visibility Definition
km
Stn Press Definition
kPa
Hmdx Definition


Wind Chill Definition


Weather Definition


00:00 19.8 15.6 77   LegendMM LegendMM LegendMM 100.70     LegendNANA
01:00 18.8 15.4 81   LegendMM LegendMM LegendMM 100.69     LegendNANA
02:00 18.7 15.6 82   LegendMM LegendMM LegendMM 100.65     LegendNANA
03:00 18.3 15.3 83   LegendMM LegendMM LegendMM 100.62     LegendNANA
04:00 18.2 15.7 85   LegendMM LegendMM LegendMM 100.62     LegendNANA
05:00 19.3 16.2 82   LegendMM LegendMM LegendMM 100.59     LegendNANA
06:00 19.0 16.3 84   LegendMM LegendMM LegendMM 100.65     LegendNANA
07:00 20.6 17.3 81   LegendMM LegendMM LegendMM 100.64 26   LegendNANA
08:00 21.3 17.4 78   LegendMM LegendMM LegendMM 100.63 27   LegendNANA
09:00 23.0 17.4 71   LegendMM LegendMM LegendMM 100.59 29   LegendNANA
10:00 24.2 17.6 67   LegendMM LegendMM LegendMM 100.53 30   LegendNANA
11:00 24.7 17.8 65   LegendMM LegendMM LegendMM 100.56 31   LegendNANA
12:00 25.4 17.0 60   LegendMM LegendMM LegendMM 100.65 31   LegendNANA
13:00 24.8 17.3 63   LegendMM LegendMM LegendMM 100.56 30   LegendNANA
14:00 21.9 18.2 80   LegendMM LegendMM LegendMM 100.57 28   LegendNANA
15:00 21.8 20.2 91   LegendMM LegendMM LegendMM 100.49 30   LegendNANA
16:00 21.3 18.6 85   LegendMM LegendMM LegendMM 100.33 28   LegendNANA
17:00 22.2 18.2 78   LegendMM LegendMM LegendMM 100.13 28   LegendNANA
18:00 21.2 16.8 76   LegendMM LegendMM LegendMM 100.13 26   LegendNANA
19:00 21.9 17.3 75   LegendMM LegendMM LegendMM 100.13 27   LegendNANA
20:00 23.6 18.0 71   LegendMM LegendMM LegendMM 100.15 30   LegendNANA
21:00 20.3 17.7 85   LegendMM LegendMM LegendMM 100.09 26   LegendNANA
22:00 20.1 18.2 89   LegendMM LegendMM LegendMM 100.03 26   LegendNANA
23:00 20.4 17.9 86   LegendMM LegendMM LegendMM 99.95 26   LegendNANA

Notes on Data Quality.

Legend

  • E = Estimated
  • M = Missing
  • NA = Not Available*
  • [empty] = Indicates an unobserved value
Date modified: